Volver al catálogo

STARLINK-4521

ActivoComunicacionesVLEO
NORAD 53391·PAYLOAD·🇺🇸 United States

Lanzado Aug 10, 2022 desde Cape Canaveral Space Force Station

Loading…

Próximos Pases (próximas 24 horas)

TLE

ActualizadoSource: CelesTrak SupGP

Época: Sep 15, 2026, 01:55 UTC

1 53391C 22097D   26258.08034722  .00045154  00000+0  14532-2 0  2583
2 53391  53.1591 344.1630 0001356 101.0885 200.4558 15.31654304    13

Sigue STARLINK-4521 en tiempo real con AllMySat

Download on the App Store